Wetbulb
54.50 54.60 54.68 55.00 55.22 55.38 54.94 55.71 56.93 55.82 53.65 53.51 54.31 54.24 54.75 55.31 55.77 54.72 56.21 61.19 57.13 54.10 55.56 55.25 54.96 52.94 51.49 51.22 46.94 48.56 47.14 47.86 44.74 40.87 42.65 42.42 40.32 42.29 39.02 41.10 39.62 38.84 36.89 35.88 36.96 33.94 32.81 49.04 47.63 42.48 46.18 47.54 48.29 48.47
54.19 54.11 54.05 54.31 54.69 54.14 54.43 55.64 56.57 55.79 53.51 53.78 54.02 54.01 54.44 54.59 55.30 55.28 56.50 62.45 61.74 55.20 55.55 58.88 57.41 59.21 57.27 55.71 51.76 49.49 48.03 48.60 47.39 44.52 44.43 45.21 41.91 41.62 41.04 35.88 43.27 35.87 42.10 38.45 40.15 39.81 46.88 49.30 48.32 49.48 49.75 47.73 48.41 47.74
53.77 53.73 53.70 53.60 53.82 54.08 54.63 55.52 56.15 55.59 53.48 53.67 53.87 53.81 53.95 54.49 54.76 54.18 54.99 59.03 58.96 54.73 54.50 54.65 52.25 56.13 56.65 56.27 56.27 50.02 51.50 52.17 50.50 50.43 46.91 45.66 41.29 44.41 38.20 39.99 41.92 44.48 44.99 40.94 41.32 45.13 47.35 48.40 50.00 50.30 50.48 48.66 49.68 49.28
53.66 53.61 53.64 53.54 53.62 53.94 53.94 55.24 56.09 55.10 53.35 53.61 53.71 53.31 53.66 53.98 54.14 53.73 54.88 58.25 58.07 56.14 50.97 52.61 58.32 55.99 57.89 56.23 57.08 56.80 54.51 53.95 53.22 50.53 45.08 44.79 42.67 47.15 42.77 43.39 42.57 45.25 45.97 42.65 42.15 44.68 46.11 48.46 49.83 49.55 48.69 50.00 49.84 49.71
53.34 53.53 53.36 53.48 53.04 53.55 54.09 55.02 55.89 54.09 53.16 53.46 53.45 53.22 53.49 53.49 53.63 52.85 55.11 58.39 60.58 55.79 51.09 52.80 56.77 56.63 57.02 56.57 56.59 56.65 54.68 52.61 51.16 48.19 46.18 43.98 46.90 46.14 45.80 44.72 42.17 45.86 45.68 41.98 40.79 48.00 47.43 47.78 49.98 50.59 48.46 47.87 48.97 47.75
53.27 53.40 53.35 53.31 53.52 53.79 54.27 54.80 54.94 52.89 53.28 53.49 53.36 53.24 53.18 53.10 52.88 53.79 55.09 59.68 57.90 59.61 52.90 50.17 56.53 55.53 56.03 56.22 55.48 54.71 54.53 53.47 51.70 48.97 46.99 48.70 50.27 46.32 41.35 41.29 46.68 48.30 49.58 48.83 46.29 49.58 50.65 50.73 51.78 53.40 49.59 49.07 50.08 49.11
53.37 53.35 53.36 53.35 53.57 53.86 54.08 54.78 52.56 52.06 53.12 53.28 53.45 53.07 52.66 52.75 51.62 53.12 53.23 55.56 52.11 58.57 53.59 50.75 50.48 55.58 56.80 56.10 54.58 54.19 54.95 53.00 51.44 49.92 48.22 47.39 48.16 47.12 43.71 39.49 46.25 47.81 48.89 49.94 49.43 48.79 48.04 50.00 49.65 50.93 52.85 51.34 51.72 50.32
52.88 52.94 53.24 53.40 53.41 53.92 54.38 52.90 51.14 50.99 52.89 53.26 53.26 52.93 52.71 52.34 51.61 52.39 57.07 53.05 52.95 55.36 55.83 49.21 50.50 52.02 56.17 51.24 50.30 54.91 51.74 51.79 51.36 49.70 50.39 48.84 48.42 47.09 41.54 45.84 47.65 49.20 50.01 49.99 50.71 50.86 49.51 49.87 50.51 50.66 52.58 52.36 49.19 48.41
52.51 52.62 52.72 52.98 53.24 53.76 52.97 51.81 51.10 52.04 52.49 52.76 52.99 52.56 52.96 51.62 54.56 57.74 57.44 57.14 58.87 56.81 51.46 51.56 48.79 46.97 55.45 52.62 53.64 52.61 51.69 47.44 53.15 47.70 48.44 49.20 46.00 39.17 44.61 46.65 48.18 49.65 48.97 47.28 49.60 49.53 50.66 50.35 48.63 50.53 49.80 50.65 48.26 47.44
52.55 52.51 52.64 52.99 53.31 52.33 51.21 50.66 51.54 51.70 51.62 52.17 50.97 52.52 52.95 56.73 57.51 58.46 56.43 54.88 54.45 54.83 53.94 50.50 54.60 50.01 53.64 51.81 50.73 50.89 51.22 48.48 44.92 47.92 51.39 46.25 43.63 48.33 50.18 50.91 50.83 52.45 50.44 49.48 46.71 47.80 48.61 48.26 48.57 49.29 49.64 49.44 49.07 48.75
52.94 52.87 52.85 52.22 51.59 50.81 50.65 50.80 50.98 51.59 51.04 52.18 52.91 54.08 58.64 55.73 57.10 55.31 50.03 49.30 50.93 48.64 52.30 51.77 51.28 50.36 55.13 49.04 49.86 52.25 48.57 48.75 42.46 46.31 45.23 43.19 41.64 47.02 51.10 51.49 52.74 51.70 51.46 50.29 50.24 50.40 49.62 49.00 49.09 49.19 48.59 49.64 49.24 49.59
51.76 51.63 51.50 51.09 50.63 50.70 50.86 50.73 51.53 50.33 54.74 51.66 51.11 54.55 59.30 55.28 52.77 48.55 47.65 50.29 48.68 47.51 53.81 51.50 52.71 53.72 55.38 55.45 49.86 50.47 46.96 47.69 41.96 48.68 43.28 37.46 44.71 49.33 51.93 51.06 50.74 51.24 51.39 51.13 52.01 51.54 51.33 51.42 50.88 50.12 49.29 48.81 49.46 50.72
51.50 50.84 51.07 51.10 51.35 51.56 51.62 51.47 51.48 51.68 51.54 56.64 53.57 52.73 51.65 50.72 40.46 43.22 42.05 45.30 47.08 52.26 54.15 53.86 52.97 55.22 54.78 53.60 49.90 48.20 44.27 43.13 48.27 42.40 38.97 41.61 47.66 47.39 48.36 48.85 51.54 51.46 52.53 52.31 51.12 51.07 51.42 52.01 51.97 51.29 50.56 51.72 51.22 51.26
51.56 51.75 52.39 51.77 51.25 51.28 51.03 51.09 51.69 52.22 51.47 51.79 50.05 36.56 46.09 44.74 46.59 47.79 48.11 50.93 53.19 52.51 51.04 53.43 51.06 52.20 53.31 50.06 50.31 43.15 44.94 44.86 39.02 37.27 39.41 46.24 47.88 47.71 48.28 50.29 52.02 51.16 51.21 50.43 50.42 50.99 50.64 50.16 49.74 50.48 51.12 50.08 50.99 50.44
50.82 50.95 51.87 52.29 52.08 52.56 52.47 51.24 51.44 52.49 52.35 50.79 50.76 38.72 46.08 49.79 51.36 52.36 54.59 52.85 52.37 55.18 51.78 50.95 50.16 52.01 49.56 47.68 45.76 43.33 39.68 37.62 39.46 40.37 45.59 48.99 49.94 50.91 50.59 50.93 48.29 49.01 48.94 48.29 48.80 48.63 48.58 48.39 47.78 48.08 48.87 49.30 49.26 49.11
50.80 50.14 52.14 51.72 51.28 51.57 51.56 50.51 51.06 52.44 53.42 51.12 50.68 47.88 50.64 49.60 49.67 52.03 53.17 54.80 54.27 54.48 54.33 52.50 49.95 48.13 46.34 45.79 40.72 39.14 38.02 36.60 42.26 47.36 50.01 51.01 50.78 50.90 50.18 49.88 49.51 49.06 48.07 47.79 47.16 47.45 47.25 46.98 46.63 46.97 47.78 47.69 47.32 47.40
49.33 53.39 51.31 51.59 51.44 51.29 51.03 52.09 53.53 51.04 50.44 49.85 48.61 51.86 50.51 50.05 49.63 50.92 52.82 53.30 58.59 55.59 52.80 52.53 46.52 45.38 46.72 41.60 40.29 43.39 40.29 45.41 47.35 50.13 51.22 51.25 50.54 50.56 49.84 49.43 48.48 48.34 47.81 46.77 46.73 46.73 46.68 47.74 48.14 46.88 45.37 45.33 45.87 46.14
50.78 51.97 51.87 51.71 51.20 52.01 54.87 51.46 52.24 51.81 48.38 50.50 48.52 50.47 51.92 52.64 52.89 52.90 54.41 56.93 57.97 56.11 55.11 50.94 53.46 47.01 43.92 40.21 41.35 45.56 48.04 50.68 51.24 51.58 51.59 52.37 51.56 50.46 49.89 48.03 48.38 47.88 46.99 47.24 47.28 47.63 47.71 46.96 45.17 43.92 43.85 44.80 44.45 45.15
51.13 50.47 50.93 51.26 50.51 48.72 50.71 53.34 53.52 47.21 49.55 52.36 53.55 54.35 53.70 53.93 56.98 57.43 56.81 56.12 58.38 58.61 56.06 51.71 48.41 45.92 45.25 46.86 47.80 49.67 50.66 50.32 49.56 51.46 52.08 52.56 52.20 49.67 49.01 49.89 49.30 48.78 49.09 47.50 46.23 47.03 46.99 46.42 45.05 44.33 44.55 45.31 45.18 46.08
50.15 50.63 51.16 51.32 50.38 49.84 49.68 51.09 56.74 51.68 48.82 52.28 53.27 52.68 54.40 54.46 54.93 55.88 54.98 53.81 52.29 52.50 50.77 49.36 49.55 50.77 51.27 51.06 51.74 53.16 52.05 53.67 51.09 49.89 49.97 49.56 50.19 50.67 48.40 47.72 47.27 47.71 47.16 45.92 45.62 45.42 46.20 45.24 44.76 43.65 44.58 44.94 45.54 45.45
51.03 52.66 51.26 51.57 50.65 49.67 50.76 51.76 52.06 52.80 53.13 51.48 53.54 53.04 52.77 56.10 53.60 52.28 53.33 53.48 50.15 49.42 50.17 52.67 53.66 54.78 56.51 55.43 56.60 55.85 54.71 53.52 50.07 49.35 49.77 48.67 50.00 49.98 49.13 49.15 48.46 47.42 45.99 45.55 45.26 44.59 44.60 44.52 44.22 44.39 44.46 45.15 46.13 47.19
53.61 52.04 54.46 53.65 52.55 53.00 51.61 54.32 51.55 53.85 52.56 52.21 51.99 53.44 52.27 53.32 53.40 51.74 55.76 52.90 52.43 53.48 55.97 55.96 55.36 56.44 56.06 55.44 55.77 54.70 54.54 52.64 49.33 46.15 45.54 45.50 47.77 47.03 46.62 47.10 46.64 45.71 45.56 45.53 45.69 45.58 46.23 47.28 47.46 47.18 46.73 45.10 44.62 45.14
51.96 52.98 52.89 53.37 50.32 46.88 46.34 55.67 50.32 52.24 49.11 51.17 53.92 52.18 52.91 52.85 54.37 55.90 52.18 53.88 56.18 59.31 58.44 57.99 57.28 57.32 56.17 56.49 55.87 55.68 54.94 52.87 49.71 48.55 49.06 47.84 48.35 48.95 47.86 47.69 47.86 46.48 45.63 46.24 47.25 47.36 47.25 45.05 44.90 46.51 46.70 46.20 45.88 45.60
51.16 51.40 49.79 49.42 48.20 44.28 51.83 50.46 52.39 51.71 52.43 50.25 51.37 48.59 48.79 52.50 54.51 50.99 49.14 51.85 53.81 57.15 56.10 56.09 55.14 54.28 55.07 55.02 52.56 52.26 51.86 52.72 49.74 50.24 50.18 48.23 46.79 48.02 48.01 47.39 47.77 48.01 48.03 48.42 47.67 47.48 47.27 47.05 45.94 46.13 46.22 45.56 45.13 44.52
44.22 42.74 44.74 37.33 50.45 49.02 47.30 47.95 49.27 50.00 48.66 50.40 49.64 48.18 49.16 54.65 50.44 49.68 49.12 50.92 52.62 53.75 54.21 55.28 53.54 54.05 51.79 52.25 51.85 51.21 52.85 50.82 48.50 47.77 50.24 49.22 48.07 47.87 47.54 47.17 48.01 48.81 49.17 47.90 46.96 46.90 46.34 46.71 46.23 45.82 45.23 43.85 43.79 45.13
39.47 46.52 41.93 47.55 48.20 46.74 47.93 46.78 48.50 49.17 49.76 49.23 50.63 53.52 55.26 50.47 47.43 47.62 50.29 52.36 52.75 52.15 54.04 54.24 53.60 52.86 52.15 51.49 49.39 48.42 49.82 52.26 51.35 48.30 48.99 48.94 48.99 47.80 46.61 45.72 45.00 46.71 49.20 48.60 47.25 46.39 46.07 46.33 46.10 46.45 45.76 44.17 40.42 45.19
40.99 45.73 50.04 53.65 51.10 51.10 50.02 51.13 50.57 50.30 48.86 48.70 52.11 51.37 50.22 46.36 46.63 50.50 54.10 55.58 54.68 55.75 56.86 57.06 54.81 53.07 52.00 50.77 51.05 51.53 51.77 51.56 52.37 49.63 50.39 49.92 50.76 50.77 48.93 47.63 46.26 47.85 49.87 49.39 48.65 47.78 46.62 46.65 46.14 45.97 45.52 45.74 45.71 45.62
48.19 50.29 46.67 49.98 50.30 51.72 48.64 49.05 48.72 48.47 50.18 53.89 52.78 49.11 47.32 47.32 49.16 55.42 55.96 57.22 57.48 57.44 57.10 57.21 56.62 56.17 51.56 50.66 50.43 50.82 50.89 50.72 50.73 50.24 49.95 50.06 50.69 50.84 49.73 48.93 48.20 44.13 47.60 47.76 48.39 48.15 47.54 47.83 47.07 46.48 46.20 45.27 45.60 46.53
47.77 51.08 51.33 48.76 50.38 50.19 50.35 50.07 50.14 52.44 56.30 54.31 53.10 51.31 50.94 54.86 57.54 56.22 57.59 57.72 58.32 57.10 54.29 51.60 51.18 51.67 51.30 51.14 51.27 50.73 50.08 48.70 47.39 46.10 45.48 44.39 45.39 47.13 48.56 47.54 47.37 48.55 47.78 46.39 38.67 43.22 46.18 45.75 46.47 46.26 47.65 47.11 47.24 47.37
48.00 52.15 49.89 50.12 48.93 47.80 50.92 52.70 52.37 55.93 58.07 57.87 57.62 56.42 55.09 55.84 58.68 57.89 56.23 55.76 54.12 53.06 52.46 51.46 51.31 50.61 49.32 48.75 48.24 48.74 49.60 49.86 49.26 47.84 46.15 46.19 46.80 48.99 48.56 47.93 48.59 49.24 47.99 46.97 46.00 44.81 40.66 44.20 43.69 47.03 46.94 47.43 46.98 46.88
52.79 52.23 50.69 50.46 49.25 51.85 52.98 54.62 54.97 56.74 58.00 55.95 54.63 53.00 53.95 53.67 56.14 57.31 56.35 56.12 54.86 53.87 52.00 50.58 50.37 50.60 49.68 49.42 49.02 48.02 47.34 50.15 51.85 52.08 51.46 50.43 49.86 49.53 49.91 50.11 50.13 50.77 50.30 49.32 48.18 46.55 46.06 45.57 46.84 47.38 47.32 47.27 46.00 45.22
51.22 50.82 50.56 49.15 50.08 54.19 55.27 53.10 53.14 57.14 55.88 53.97 50.81 51.79 53.69 52.34 51.12 55.95 57.93 56.59 53.95 52.28 50.90 51.00 50.62 50.45 52.03 51.77 52.10 51.34 48.32 50.96 51.39 51.21 52.25 50.59 50.27 50.70 50.63 50.13 49.86 49.83 50.65 50.38 49.89 49.37 48.91 48.51 48.42 47.86 47.56 47.73 47.72 47.45
52.42 52.18 52.50 51.12 50.90 51.30 52.59 54.90 54.74 53.92 54.11 52.62 52.29 53.19 53.48 52.52 50.80 53.86 58.52 58.04 55.63 54.83 54.01 54.64 54.97 54.53 55.52 55.78 55.08 52.72 49.58 52.74 49.59 44.50 42.94 44.07 47.73 48.42 49.97 49.77 49.77 50.47 50.21 49.81 49.45 49.29 49.03 49.00 48.14 48.83 48.47 48.17 48.13 47.80
MSLP
1018.96 1018.67 1018.50 1018.19 1017.93 1017.79 1017.56 1017.36 1016.99 1016.85 1016.94 1016.66 1016.42 1016.23 1016.18 1015.82 1015.31 1014.77 1013.26 1012.13 1012.29 1011.78 1010.30 1009.34 1009.28 1009.40 1009.50 1009.95 1010.36 1010.90 1011.24 1011.30 1011.61 1012.46 1013.31 1014.67 1015.13 1015.08 1015.14 1014.83 1014.43 1014.29 1014.41 1014.72 1014.78 1014.73 1014.13 1013.16 1012.62 1013.04 1013.46 1013.48 1013.76 1014.15
1018.75 1018.45 1018.24 1018.13 1017.87 1017.73 1017.56 1017.28 1017.02 1017.03 1017.02 1016.81 1016.41 1016.27 1016.12 1015.94 1015.51 1014.97 1013.71 1012.10 1012.01 1012.27 1010.85 1009.90 1009.51 1009.31 1009.56 1009.86 1010.26 1010.60 1011.08 1011.37 1011.89 1012.50 1013.39 1014.33 1014.91 1014.87 1015.03 1014.93 1014.59 1015.01 1014.69 1015.08 1015.15 1015.02 1014.31 1013.81 1013.91 1013.87 1013.84 1014.33 1014.71 1015.05
1018.12 1017.82 1017.60 1017.44 1017.33 1017.18 1017.05 1017.01 1016.65 1016.63 1016.75 1016.78 1016.42 1016.27 1016.06 1015.92 1015.68 1015.40 1014.39 1013.20 1012.31 1011.80 1010.56 1009.71 1009.33 1009.43 1009.58 1009.64 1009.69 1010.48 1011.08 1011.34 1011.99 1012.46 1013.16 1013.46 1014.24 1014.29 1014.63 1014.56 1014.45 1014.28 1014.19 1014.96 1015.13 1014.79 1014.46 1014.31 1014.23 1014.29 1014.41 1014.78 1015.03 1015.44
1017.51 1017.36 1017.28 1017.03 1016.90 1016.95 1016.74 1016.87 1016.62 1016.77 1016.57 1016.53 1016.42 1016.27 1016.07 1015.87 1015.62 1015.42 1014.69 1013.50 1013.06 1012.30 1011.09 1009.53 1008.91 1009.27 1009.61 1009.65 1010.05 1010.41 1011.07 1011.55 1011.98 1012.56 1013.14 1013.43 1013.92 1014.07 1014.48 1014.55 1014.59 1014.43 1014.40 1014.77 1014.99 1014.69 1014.49 1014.38 1014.38 1014.57 1014.94 1015.26 1015.47 1015.70
1016.90 1016.71 1016.70 1016.72 1016.62 1016.62 1016.34 1016.58 1016.42 1016.70 1016.79 1016.67 1016.53 1016.17 1016.12 1015.90 1015.60 1015.21 1014.49 1013.29 1012.91 1012.91 1011.98 1010.44 1009.31 1009.42 1009.76 1009.92 1010.15 1010.70 1011.23 1011.93 1012.45 1012.84 1013.43 1013.70 1013.87 1014.48 1014.45 1014.50 1014.54 1014.22 1014.31 1014.69 1015.03 1014.73 1014.81 1014.38 1014.13 1014.19 1014.73 1015.19 1015.66 1015.98
1016.48 1016.24 1016.03 1016.14 1016.19 1016.05 1015.90 1015.94 1015.92 1016.26 1016.52 1016.52 1016.70 1016.24 1016.02 1015.91 1015.73 1015.07 1014.11 1013.40 1013.29 1012.93 1012.67 1010.82 1009.55 1009.50 1009.72 1010.19 1010.64 1010.96 1011.41 1012.00 1012.67 1013.31 1013.72 1014.03 1014.31 1014.84 1015.12 1014.83 1014.12 1013.92 1013.99 1014.17 1014.46 1014.24 1014.56 1014.42 1014.09 1014.20 1014.41 1014.73 1015.12 1015.85
1016.02 1015.83 1015.72 1015.87 1015.87 1016.01 1015.82 1015.77 1015.94 1015.98 1016.39 1016.32 1016.60 1016.27 1016.02 1015.98 1015.93 1015.49 1015.07 1014.39 1014.21 1013.77 1013.04 1011.27 1009.80 1009.60 1009.83 1010.44 1010.83 1011.21 1011.51 1012.08 1012.83 1013.53 1013.93 1014.42 1014.98 1015.14 1015.31 1015.27 1014.44 1014.05 1013.77 1013.68 1013.96 1014.22 1014.27 1014.17 1014.27 1014.16 1013.87 1014.36 1014.65 1015.32
1015.61 1015.48 1015.66 1015.46 1015.52 1015.79 1015.91 1015.87 1016.02 1016.11 1016.24 1016.28 1016.39 1016.17 1015.87 1015.81 1015.76 1014.89 1013.59 1013.88 1014.32 1013.93 1012.81 1011.46 1010.08 1010.04 1010.10 1010.62 1011.03 1011.14 1011.89 1012.62 1013.16 1013.53 1014.12 1014.59 1015.30 1015.42 1015.23 1014.39 1014.23 1013.96 1013.56 1013.46 1013.44 1013.62 1013.90 1013.89 1014.24 1014.24 1013.80 1014.60 1014.82 1015.06
1015.35 1015.16 1015.48 1015.54 1015.48 1015.67 1015.85 1016.11 1015.95 1016.09 1016.13 1016.20 1016.10 1015.85 1015.65 1015.54 1014.53 1013.77 1013.61 1013.80 1013.87 1014.20 1012.99 1011.29 1010.16 1009.91 1009.98 1010.47 1010.89 1011.73 1012.27 1012.98 1013.15 1013.47 1013.92 1014.89 1015.14 1015.30 1014.24 1014.04 1013.71 1013.36 1013.19 1013.31 1013.37 1013.44 1013.60 1014.03 1014.50 1014.57 1014.38 1014.65 1015.16 1015.28
1015.49 1015.18 1015.40 1015.43 1015.56 1015.77 1015.96 1016.22 1016.01 1016.23 1016.08 1015.98 1016.03 1015.78 1014.62 1013.92 1013.71 1013.68 1014.03 1013.89 1013.73 1013.14 1012.82 1011.47 1010.06 1009.76 1010.00 1010.61 1011.36 1012.47 1012.82 1013.33 1013.59 1013.61 1014.00 1014.55 1014.49 1013.90 1013.54 1013.38 1013.22 1012.95 1012.70 1012.96 1013.29 1013.26 1013.52 1014.12 1014.65 1015.15 1015.45 1015.13 1015.03 1015.03
1015.71 1015.69 1015.28 1015.60 1016.13 1016.33 1016.24 1016.28 1016.31 1016.34 1016.27 1016.03 1015.49 1014.37 1013.77 1013.74 1013.71 1013.43 1013.43 1013.39 1013.01 1012.44 1011.22 1010.17 1009.94 1009.88 1009.77 1010.90 1011.59 1012.15 1012.68 1013.20 1013.52 1013.50 1013.98 1014.40 1014.33 1013.12 1012.64 1012.73 1012.66 1012.47 1012.39 1012.70 1012.92 1013.18 1013.47 1014.14 1014.74 1015.07 1015.65 1015.62 1015.57 1015.33
1016.58 1016.40 1016.15 1016.07 1016.37 1016.41 1016.52 1016.51 1016.54 1016.47 1015.83 1016.30 1016.17 1014.53 1013.41 1013.40 1013.05 1013.06 1012.68 1012.36 1012.12 1011.11 1009.50 1009.15 1009.21 1009.61 1010.08 1010.68 1012.48 1012.83 1013.29 1013.61 1013.48 1013.43 1014.00 1014.56 1013.60 1012.98 1012.78 1012.45 1012.44 1012.27 1012.28 1012.60 1012.89 1013.16 1013.52 1013.98 1014.34 1014.93 1015.40 1015.78 1015.97 1015.86
1016.58 1016.72 1016.48 1016.41 1016.20 1016.29 1016.37 1016.49 1016.51 1016.36 1016.03 1014.88 1015.33 1013.85 1012.74 1012.68 1012.53 1012.01 1011.39 1011.24 1010.94 1010.02 1009.01 1008.69 1009.77 1010.51 1011.36 1012.21 1013.29 1014.13 1014.06 1013.81 1013.94 1014.57 1014.44 1014.14 1013.72 1013.56 1013.46 1013.45 1012.51 1012.23 1012.42 1012.74 1013.16 1013.44 1013.62 1014.34 1014.58 1014.65 1015.03 1015.36 1015.39 1015.34
1016.88 1016.60 1016.30 1016.26 1016.18 1016.11 1016.24 1016.42 1016.29 1016.22 1016.17 1014.60 1013.35 1013.08 1012.09 1011.27 1010.55 1009.76 1009.42 1009.29 1009.63 1009.88 1010.54 1010.11 1010.84 1011.58 1012.31 1012.89 1013.29 1014.10 1014.75 1014.78 1014.70 1014.48 1013.77 1013.69 1013.73 1014.06 1013.79 1013.61 1013.15 1012.58 1012.86 1013.35 1013.56 1013.72 1013.83 1013.92 1014.09 1014.30 1014.37 1014.46 1014.36 1014.63
1016.74 1016.45 1016.17 1016.00 1016.05 1015.88 1015.96 1016.13 1016.22 1016.00 1015.23 1013.42 1011.95 1011.06 1010.00 1009.22 1008.35 1007.90 1007.57 1008.12 1008.25 1008.90 1010.08 1011.26 1012.10 1011.96 1012.54 1013.16 1013.96 1014.65 1015.03 1014.77 1014.32 1013.37 1013.25 1013.37 1013.46 1013.35 1013.60 1013.45 1013.33 1013.31 1013.41 1013.47 1013.60 1013.81 1014.09 1014.13 1014.27 1014.39 1014.47 1014.42 1014.35 1014.46
1016.36 1016.14 1015.80 1016.06 1016.07 1015.83 1015.81 1015.99 1015.99 1015.49 1013.90 1012.44 1010.99 1009.42 1008.32 1007.75 1007.03 1006.71 1006.16 1006.70 1007.42 1008.40 1010.13 1011.41 1011.58 1012.04 1012.78 1013.39 1014.26 1014.34 1014.38 1013.77 1013.10 1013.21 1013.53 1013.53 1013.58 1013.56 1013.48 1013.53 1013.58 1013.69 1013.83 1014.03 1014.18 1014.28 1014.36 1014.51 1014.58 1014.61 1014.51 1014.55 1014.47 1014.54
1016.09 1015.60 1015.88 1016.11 1016.04 1015.99 1015.97 1015.80 1014.95 1014.07 1012.34 1010.60 1009.07 1008.21 1007.85 1007.51 1007.10 1006.71 1006.33 1006.16 1006.09 1007.79 1008.93 1009.87 1010.58 1011.25 1012.63 1013.14 1013.47 1013.49 1013.11 1012.51 1012.68 1013.12 1013.41 1013.78 1013.67 1013.59 1013.58 1013.56 1013.76 1013.90 1014.15 1014.25 1014.36 1014.40 1014.67 1014.62 1014.66 1014.83 1015.07 1015.24 1015.12 1014.85
1015.70 1015.67 1016.01 1016.15 1016.10 1015.70 1014.98 1015.14 1013.55 1011.58 1010.46 1009.31 1008.55 1007.69 1007.19 1007.00 1006.72 1006.64 1006.42 1006.27 1006.54 1007.34 1008.32 1008.86 1009.75 1010.37 1011.14 1011.98 1012.06 1011.90 1011.80 1011.89 1012.26 1012.75 1013.10 1013.28 1013.58 1013.61 1013.58 1013.71 1013.70 1013.83 1014.07 1014.36 1014.58 1014.98 1015.24 1015.30 1015.36 1015.60 1015.66 1015.63 1015.37 1014.85
1015.82 1015.94 1016.07 1016.09 1016.08 1015.83 1013.98 1012.98 1012.33 1010.76 1008.89 1008.00 1007.39 1006.98 1006.77 1006.61 1006.48 1007.09 1007.60 1008.07 1008.07 1008.00 1008.11 1008.46 1009.23 1009.87 1010.39 1010.74 1010.52 1010.47 1010.63 1010.91 1011.63 1012.38 1012.72 1013.16 1013.47 1013.49 1013.43 1013.36 1013.35 1013.48 1013.89 1014.68 1014.99 1015.39 1015.87 1015.95 1016.02 1016.11 1016.05 1015.96 1015.69 1015.15
1015.73 1015.53 1015.69 1015.88 1015.92 1014.92 1013.05 1011.32 1010.66 1009.84 1008.42 1007.45 1007.24 1006.67 1006.40 1006.58 1007.66 1008.43 1008.20 1009.08 1009.89 1010.34 1009.97 1009.45 1008.87 1008.96 1009.12 1009.47 1009.76 1009.84 1010.14 1010.53 1011.13 1011.96 1012.53 1013.03 1013.09 1013.19 1013.16 1013.09 1013.22 1013.84 1014.45 1015.17 1015.49 1015.56 1016.06 1016.50 1016.43 1016.37 1016.17 1016.14 1015.94 1015.82
1015.20 1014.72 1015.19 1015.52 1015.37 1014.54 1012.94 1010.68 1009.55 1008.73 1007.61 1007.21 1006.57 1006.44 1006.34 1007.05 1007.59 1008.04 1008.89 1009.24 1009.95 1010.53 1009.64 1008.80 1008.64 1008.60 1008.57 1008.95 1009.29 1009.58 1010.16 1010.49 1010.96 1011.22 1011.57 1012.14 1012.55 1012.58 1012.86 1013.06 1013.44 1014.07 1014.62 1015.04 1015.48 1016.00 1016.30 1016.44 1016.57 1016.49 1016.30 1016.07 1015.81 1015.58
1014.59 1014.71 1014.35 1014.61 1013.74 1012.93 1011.74 1010.22 1009.30 1008.09 1007.77 1006.95 1006.59 1006.35 1006.49 1007.02 1007.82 1008.55 1008.77 1009.11 1009.13 1008.56 1008.39 1008.35 1008.59 1008.84 1009.21 1009.37 1009.49 1009.86 1010.39 1010.69 1010.96 1011.19 1011.38 1011.63 1011.93 1012.36 1012.59 1012.91 1013.44 1014.14 1014.72 1015.06 1015.32 1015.70 1016.13 1016.27 1016.22 1016.08 1016.03 1015.94 1015.49 1015.35
1014.58 1014.22 1013.59 1012.80 1012.51 1011.55 1010.48 1009.22 1008.68 1007.86 1007.22 1006.33 1005.98 1006.23 1006.73 1007.50 1008.13 1008.57 1008.31 1007.96 1008.08 1008.04 1008.00 1008.23 1008.58 1008.96 1009.32 1009.62 1009.85 1010.17 1010.42 1010.62 1010.98 1011.21 1011.36 1011.66 1012.00 1012.22 1012.43 1012.80 1013.32 1013.88 1014.39 1014.68 1014.88 1015.33 1015.57 1015.59 1015.80 1015.84 1015.69 1015.54 1015.50 1015.54
1014.34 1013.55 1012.36 1011.43 1011.31 1010.47 1009.01 1008.02 1007.39 1006.79 1006.17 1006.18 1006.16 1006.95 1007.83 1007.81 1007.93 1008.39 1007.14 1007.59 1007.78 1007.99 1008.25 1008.57 1008.73 1009.11 1009.43 1009.69 1009.90 1010.20 1010.32 1010.51 1010.76 1011.08 1011.28 1011.58 1012.03 1012.26 1012.38 1012.62 1012.87 1013.42 1013.83 1014.23 1014.43 1014.87 1014.93 1014.96 1015.27 1015.68 1015.48 1015.58 1015.44 1015.37
1013.90 1012.95 1012.06 1011.04 1009.96 1009.07 1008.00 1006.89 1006.29 1006.15 1005.65 1005.72 1006.18 1006.83 1007.28 1007.38 1007.19 1007.01 1006.86 1007.36 1007.57 1007.73 1008.10 1008.25 1008.55 1008.65 1008.88 1009.18 1009.39 1009.90 1010.03 1010.12 1010.40 1010.92 1011.10 1011.33 1011.75 1012.20 1012.40 1012.62 1012.85 1013.26 1013.49 1013.89 1014.24 1014.33 1014.47 1014.66 1014.79 1014.82 1014.83 1015.02 1015.02 1015.05
1012.66 1011.19 1010.53 1008.87 1008.04 1007.41 1006.37 1005.83 1005.32 1005.07 1004.97 1005.02 1005.26 1005.92 1006.30 1006.33 1006.21 1005.81 1005.96 1006.33 1006.69 1007.08 1007.33 1007.41 1007.65 1007.93 1008.07 1008.26 1008.87 1009.44 1009.81 1009.91 1010.19 1010.62 1011.08 1011.22 1011.30 1011.56 1011.95 1012.44 1012.84 1013.06 1013.02 1013.43 1013.73 1013.97 1014.13 1014.25 1014.38 1014.55 1014.89 1014.95 1015.11 1015.15
1011.18 1009.36 1008.11 1007.56 1007.02 1006.30 1005.60 1005.18 1004.99 1004.24 1004.01 1004.09 1004.81 1005.51 1005.64 1005.35 1004.87 1004.76 1005.01 1005.46 1005.81 1006.12 1006.43 1006.57 1006.87 1007.16 1007.30 1007.84 1008.40 1008.92 1009.40 1009.84 1010.14 1010.55 1010.98 1011.12 1011.02 1011.36 1011.78 1012.09 1012.83 1013.05 1012.92 1013.19 1013.59 1013.79 1013.99 1014.09 1014.21 1014.49 1014.66 1014.66 1014.75 1014.75
1009.21 1007.68 1006.87 1006.07 1005.76 1005.05 1004.34 1003.72 1003.31 1002.98 1003.11 1003.39 1004.08 1004.83 1005.08 1005.18 1004.42 1003.79 1003.89 1004.70 1005.15 1005.62 1005.96 1006.07 1006.21 1006.35 1006.97 1007.80 1008.42 1009.07 1009.60 1010.08 1010.43 1010.72 1011.15 1011.36 1011.33 1011.73 1012.31 1012.78 1013.13 1013.26 1013.60 1013.71 1013.90 1014.08 1014.19 1014.13 1014.16 1014.34 1014.49 1014.61 1014.67 1014.71
1007.86 1006.72 1006.15 1005.31 1004.36 1003.71 1003.43 1002.68 1002.28 1002.17 1002.39 1002.90 1003.65 1004.80 1005.20 1005.19 1004.07 1003.77 1004.03 1004.18 1004.57 1005.04 1005.32 1005.66 1006.23 1006.80 1007.42 1008.05 1008.62 1009.16 1009.67 1010.15 1010.60 1010.92 1011.16 1011.40 1011.63 1011.93 1012.25 1012.70 1013.14 1013.28 1013.58 1013.94 1014.11 1014.19 1014.40 1014.48 1014.58 1014.66 1014.61 1014.68 1014.77 1014.89
1006.35 1005.64 1004.80 1004.10 1003.38 1002.71 1002.25 1001.97 1001.70 1001.40 1001.74 1002.45 1003.46 1004.68 1004.78 1004.54 1003.87 1003.73 1004.14 1004.53 1004.73 1004.95 1005.24 1005.70 1006.28 1006.87 1007.49 1008.06 1008.55 1009.02 1009.29 1009.59 1010.01 1010.34 1010.50 1010.48 1010.73 1011.21 1011.80 1012.35 1012.67 1012.82 1013.13 1013.55 1013.91 1014.26 1014.47 1014.57 1014.58 1014.51 1014.55 1014.47 1014.53 1014.66
1004.26 1003.85 1003.47 1002.90 1002.35 1001.97 1001.57 1001.25 1000.98 1001.08 1001.89 1003.02 1003.90 1004.66 1005.18 1005.08 1004.25 1003.87 1004.30 1004.66 1004.97 1005.00 1005.17 1005.58 1006.06 1006.49 1006.98 1007.34 1007.81 1008.47 1008.83 1008.95 1009.16 1009.55 1009.83 1009.96 1010.21 1010.92 1011.31 1011.68 1011.97 1012.19 1012.49 1012.80 1013.17 1013.67 1013.98 1014.12 1014.04 1014.15 1014.24 1014.14 1014.44 1014.50
1003.16 1002.54 1002.22 1001.86 1001.57 1001.29 1001.12 1001.06 1001.04 1001.65 1002.56 1003.82 1005.18 1005.41 1004.88 1004.76 1004.62 1004.33 1005.02 1004.88 1005.13 1005.14 1005.10 1005.34 1005.75 1005.98 1006.22 1006.51 1006.92 1007.53 1007.86 1008.04 1008.56 1009.18 1009.62 1010.16 1010.64 1010.88 1011.20 1011.54 1011.77 1011.93 1012.21 1012.42 1012.57 1012.79 1013.17 1013.27 1013.17 1013.50 1013.60 1013.86 1014.04 1014.24
1002.45 1002.33 1002.27 1002.04 1001.78 1001.47 1001.42 1001.32 1001.78 1002.91 1003.74 1004.47 1004.60 1004.89 1004.83 1004.36 1005.20 1006.34 1006.10 1005.99 1006.62 1005.41 1005.29 1005.09 1004.95 1005.19 1005.66 1006.02 1006.43 1006.71 1007.32 1007.63 1008.23 1008.88 1009.33 1009.93 1010.49 1010.88 1011.22 1011.51 1011.63 1011.71 1011.97 1012.17 1012.24 1012.29 1012.53 1012.73 1012.90 1012.94 1013.17 1013.28 1013.45 1013.74
Wind_Speed
11 10 10 9 9 9 10 9 10 8 9 11 12 13 14 15 15 8 6 3 2 3 6 4 3 2 2 4 3 2 1 2 1 1 3 2 2 1 3 4 4 3 2 1 1 2 2 9 7 4 3 5 9 14
11 10 11 11 10 11 11 10 9 7 8 10 10 11 13 13 13 11 3 4 0 2 4 8 6 2 3 5 1 1 3 2 1 3 2 4 1 2 7 2 4 1 3 4 3 4 1 7 6 3 6 6 5 8
12 11 10 9 9 9 9 9 8 7 6 9 9 10 11 12 12 9 4 4 4 2 5 7 7 5 3 2 3 2 2 3 4 2 1 3 3 3 2 3 3 5 3 3 5 1 6 5 4 4 5 5 5 6
13 12 10 8 8 9 8 9 8 7 6 7 9 9 11 12 12 10 3 5 5 3 4 4 6 5 7 4 4 4 6 3 1 1 2 1 2 2 1 1 2 4 1 4 5 5 3 3 7 7 4 2 5 7
13 11 9 8 6 8 7 8 6 5 6 7 8 8 10 11 12 6 4 5 6 1 3 5 3 7 4 2 3 4 2 2 1 2 2 2 2 4 2 1 2 1 2 3 4 4 2 5 6 11 9 8 6 6
12 10 8 7 8 8 7 7 6 4 5 5 8 7 9 10 11 3 3 3 6 4 3 3 2 5 8 8 4 3 3 3 2 1 1 2 5 2 2 3 4 5 5 8 4 6 6 5 7 5 11 11 9 9
10 8 7 6 6 7 7 6 4 1 5 5 7 7 8 8 4 3 2 3 7 3 3 4 3 4 6 4 3 3 4 2 3 1 1 2 2 2 1 3 4 7 6 5 3 2 4 3 4 6 3 12 12 9
7 6 6 6 5 6 5 7 5 1 6 6 7 8 8 8 9 5 2 9 2 2 3 4 1 4 6 4 3 3 3 3 1 3 2 2 3 2 5 7 6 8 8 6 5 6 6 4 4 6 6 8 10 10
4 2 4 4 4 5 8 6 4 4 4 6 8 9 3 2 3 2 4 2 2 2 3 3 2 3 6 3 3 3 2 1 2 2 2 4 3 6 7 6 7 6 4 3 4 4 4 2 3 5 6 5 6 7
5 3 1 2 5 9 8 4 2 3 6 6 3 3 3 2 6 6 1 3 3 4 4 4 3 2 5 3 3 4 1 3 3 4 4 4 5 6 7 8 7 7 4 4 3 3 4 6 5 2 8 7 5 9
7 6 9 10 9 7 4 2 2 6 4 3 4 1 2 3 2 3 2 3 3 4 4 5 7 4 1 3 4 4 4 2 2 4 5 3 4 5 7 9 7 3 6 5 4 4 3 3 4 7 2 4 7 6
8 7 7 7 5 3 2 3 2 1 3 4 4 7 3 3 4 3 3 3 4 4 4 5 4 4 3 6 4 5 1 1 4 3 2 3 4 5 1 7 6 2 3 2 4 6 5 5 6 5 4 7 13 6
6 3 2 3 3 3 4 4 5 10 11 3 3 4 3 2 3 5 5 4 4 5 4 3 5 3 4 4 4 2 3 3 3 1 4 6 4 7 11 12 2 4 2 3 5 6 9 4 6 5 9 12 8 5
9 8 6 5 6 7 7 6 3 4 3 4 4 4 4 5 6 6 7 2 3 4 7 4 3 1 1 1 2 3 3 4 1 3 4 2 8 7 12 11 8 3 8 7 5 5 2 5 6 3 0 2 2 2
9 9 7 2 7 8 9 6 3 3 4 4 4 4 8 8 8 8 7 3 3 6 5 6 3 1 2 3 4 3 0 3 4 3 2 3 4 4 3 1 8 6 5 2 2 5 7 8 7 6 5 4 2 1
10 10 2 2 4 5 4 5 3 3 4 4 6 7 7 8 8 4 5 3 7 4 6 6 6 2 2 4 3 3 3 5 1 3 3 4 3 1 5 6 5 5 6 6 5 5 4 4 3 4 5 5 5 5
6 0 5 1 2 2 3 3 4 6 5 5 6 8 9 8 7 6 4 5 6 7 3 3 5 4 4 3 4 3 4 1 5 5 4 2 4 3 5 5 6 5 6 4 3 6 5 5 6 6 7 9 9 8
3 4 2 2 4 3 4 5 5 5 10 7 8 8 8 7 3 5 5 2 3 3 3 2 3 4 4 6 4 4 5 3 6 5 5 6 5 4 4 3 3 4 3 2 3 5 7 6 6 5 6 7 8 9
6 4 4 5 3 3 4 7 5 5 6 7 7 6 6 5 2 8 10 11 8 5 2 3 3 3 3 3 4 3 3 3 6 6 5 7 6 4 4 5 5 5 4 8 8 6 5 6 5 4 5 4 5 5
12 13 11 6 5 4 5 4 6 5 5 4 5 6 4 1 5 5 7 5 5 4 1 3 3 4 3 5 4 1 2 3 7 6 7 6 6 4 2 1 2 11 7 8 6 6 6 5 4 1 1 3 4 4
6 4 7 6 4 5 5 5 4 5 6 5 7 6 5 4 4 3 2 3 4 3 5 4 3 3 3 5 4 4 5 4 5 4 5 6 7 5 5 4 6 9 7 4 6 5 5 3 3 2 3 3 3 2
2 5 3 6 4 5 5 6 5 5 4 5 7 5 4 3 3 2 2 3 4 4 3 3 4 5 5 5 5 8 7 6 6 4 4 3 4 4 3 5 8 7 5 4 3 4 3 1 1 3 4 3 4 5
9 5 4 6 5 2 7 4 5 5 5 3 1 2 3 3 2 1 2 3 2 1 3 4 5 6 5 7 8 6 3 3 4 4 3 5 4 2 4 5 8 7 5 3 4 5 3 4 4 2 3 2 3 3
3 4 4 4 8 5 5 5 4 4 4 5 2 3 2 3 4 3 4 2 3 5 6 7 7 6 4 6 5 4 3 3 5 3 3 6 5 1 4 3 5 6 4 5 3 5 3 3 6 5 5 4 4 3
2 6 3 6 4 5 5 5 8 5 3 2 3 4 4 3 2 3 2 4 6 5 7 5 5 6 6 7 6 5 1 3 6 6 3 6 5 3 4 4 4 8 5 4 4 4 3 1 4 3 5 5 2 3
5 6 6 6 6 5 4 4 0 4 3 3 1 3 1 2 2 3 4 6 4 6 6 6 6 6 6 6 8 7 4 2 4 6 3 4 6 6 6 6 5 3 4 5 4 4 3 3 3 5 3 5 3 3
5 6 7 6 5 6 5 2 6 8 3 3 4 4 2 3 2 2 6 5 6 5 6 6 7 6 4 6 6 6 5 4 2 6 4 2 2 7 6 5 7 3 3 5 4 4 3 1 3 6 3 4 4 2
7 5 11 8 10 8 11 9 7 3 2 3 4 3 3 3 2 3 5 9 7 7 8 7 8 5 9 8 7 5 5 7 6 5 4 1 2 8 9 6 5 11 6 6 5 6 6 5 3 5 4 2 3 4
6 6 9 14 13 4 8 11 9 7 6 7 1 3 3 3 3 6 5 5 8 8 6 6 8 9 8 7 6 6 6 6 6 6 8 6 4 4 6 6 4 4 6 4 4 4 4 3 3 4 5 3 4 3
13 11 12 15 15 12 8 7 8 3 3 4 5 2 0 2 3 7 6 4 5 4 5 7 6 8 8 8 7 7 7 8 8 7 7 7 8 8 8 8 7 6 7 7 5 4 3 2 3 2 4 2 3 4
9 10 14 12 11 9 9 8 7 2 4 4 4 4 3 2 4 5 5 5 5 5 6 8 8 8 9 8 8 8 5 6 8 7 4 4 8 7 6 5 4 4 6 8 9 8 7 6 6 6 5 4 5 2
9 11 11 13 8 7 7 8 5 2 2 5 5 2 4 2 5 4 6 2 6 6 7 7 6 6 7 7 8 9 11 7 8 8 7 4 5 6 5 4 4 4 4 3 3 5 7 5 1 3 5 5 5 5
9 9 9 9 9 10 6 4 2 3 2 1 2 1 3 2 5 3 6 7 6 6 4 4 6 7 7 5 6 6 7 6 13 14 13 10 11 8 5 4 4 4 6 4 5 5 6 6 5 6 5 5 5 7
Wind_Direction
312 313 311 304 301 301 304 306 296 290 313 326 333 336 337 349 356 355 282 276 43 317 296 22 70 24 14 16 57 219 14 284 268 359 79 90 86 214 33 310 315 358 63 263 290 274 191 12 29 51 167 40 73 73
299 301 308 308 302 303 302 295 293 291 312 318 329 329 336 346 353 343 282 351 265 226 299 318 334 79 30 38 17 186 149 230 57 27 92 132 123 257 170 271 163 280 140 196 100 200 49 57 100 65 73 75 69 96
288 284 287 292 288 285 292 292 282 272 299 315 322 324 332 341 355 357 302 312 311 240 279 232 203 188 214 217 36 90 25 21 50 100 293 213 146 179 188 245 214 215 172 138 53 180 155 158 125 102 91 112 92 117
281 281 281 288 283 285 294 292 280 279 305 315 317 321 328 334 347 347 316 308 300 296 261 121 91 136 180 236 135 30 110 39 90 155 230 289 98 73 346 122 96 204 25 204 199 249 289 196 162 148 131 94 146 129
274 269 273 277 277 277 283 280 259 269 301 311 307 325 327 335 338 310 260 264 283 327 313 306 175 131 147 243 156 123 114 152 109 23 2 308 77 41 301 308 257 246 263 158 221 354 323 235 191 173 161 178 170 147
276 266 259 257 258 255 257 255 210 249 291 310 300 315 328 339 337 285 246 90 5 0 291 293 67 130 159 139 175 187 209 154 104 43 246 6 20 143 314 288 206 257 161 150 210 232 228 250 287 246 175 178 168 159
284 269 251 246 248 253 245 213 179 334 298 307 301 319 325 332 311 275 2 315 356 309 258 267 185 138 136 145 189 197 193 120 96 167 331 214 144 124 227 218 258 337 313 160 131 275 300 292 277 290 210 176 167 164
299 281 249 224 230 237 230 165 160 268 308 309 302 310 317 308 281 281 249 224 250 278 270 272 141 128 172 187 208 138 148 90 265 197 165 109 106 242 240 225 237 254 248 258 239 196 239 197 339 246 178 160 173 167
337 297 246 224 212 203 153 155 171 261 302 320 311 316 303 196 235 90 130 133 237 287 299 258 210 177 158 233 109 70 59 129 355 186 172 126 196 222 227 224 246 260 98 3 334 303 181 162 45 355 334 249 183 180
17 44 142 187 164 133 132 157 282 339 346 335 294 224 221 69 115 120 99 191 204 209 221 252 294 160 162 127 164 110 189 209 208 226 128 191 256 223 217 220 220 252 145 123 269 299 146 169 183 57 274 289 245 172
46 69 89 103 116 131 151 93 2 347 285 219 227 270 71 109 233 214 218 235 180 241 225 220 226 237 219 144 175 173 177 218 242 207 156 212 267 241 215 214 226 241 129 147 208 194 128 148 195 170 256 302 305 309
58 70 100 125 149 164 202 264 309 286 345 312 297 276 187 216 220 207 201 207 221 253 234 192 211 171 46 68 43 359 61 202 250 115 88 274 261 259 1 129 157 64 53 88 162 168 195 160 148 190 238 198 250 258
21 358 307 252 235 244 263 268 263 284 304 245 217 241 167 190 39 216 206 202 233 201 240 146 68 48 56 62 134 164 248 206 39 65 221 227 22 73 50 342 117 112 210 113 50 40 77 196 198 183 219 238 226 203
335 335 311 274 280 277 266 264 290 292 268 248 205 310 207 203 228 205 228 215 186 144 78 28 67 245 76 102 121 143 43 29 82 227 233 92 115 120 147 223 296 62 96 82 71 106 185 152 126 124 298 301 352 262
315 323 331 293 308 294 260 226 216 244 268 256 239 234 216 239 268 256 237 155 206 122 127 61 324 116 140 78 28 84 111 222 228 239 63 122 121 137 215 303 66 50 55 72 22 33 54 47 39 32 18 352 326 300
315 301 193 36 350 1 143 160 193 243 245 242 242 264 278 267 260 278 267 173 116 126 99 137 229 197 86 124 142 193 196 224 224 72 71 64 92 93 71 77 58 55 38 70 68 62 36 21 356 312 306 331 345 358
317 211 126 95 331 283 211 257 198 225 248 238 236 229 243 275 283 296 314 310 110 150 132 151 194 132 115 127 188 196 214 258 122 119 121 193 164 100 110 80 70 62 85 44 20 50 61 27 12 17 15 3 347 328
227 113 117 318 324 287 210 206 257 246 231 242 264 277 285 282 277 294 283 312 68 111 124 133 126 180 154 172 198 211 226 202 136 145 158 127 110 100 115 129 167 130 113 70 359 86 44 34 13 26 14 350 332 311
351 327 309 298 325 282 257 196 227 264 259 260 259 258 259 260 306 48 52 26 14 5 49 53 130 179 187 200 219 219 147 151 145 147 134 130 146 142 179 245 214 201 111 67 43 85 72 47 47 22 356 349 340 359
281 265 249 254 221 255 251 231 184 247 273 304 290 268 258 346 88 53 66 72 49 348 323 251 228 153 206 162 198 157 83 356 133 154 153 154 159 179 206 182 60 104 99 92 58 53 82 64 28 16 340 349 24 73
304 160 135 173 211 234 283 285 222 255 251 243 257 265 273 136 133 119 99 103 95 226 257 221 179 163 107 103 93 80 74 60 71 71 139 166 168 189 196 204 86 89 93 102 92 98 98 142 183 248 309 321 298 288
202 197 246 195 243 228 251 237 260 318 293 263 284 265 255 145 150 217 136 157 208 201 195 151 109 105 116 125 89 105 123 105 103 98 96 106 130 105 80 104 102 103 105 105 103 123 127 25 230 225 269 313 262 266
290 190 237 213 236 237 249 242 246 224 256 280 319 5 33 33 54 344 268 192 128 104 115 113 129 132 136 116 113 110 109 140 112 121 118 97 111 160 131 116 128 134 144 146 142 137 197 156 196 265 297 45 339 26
259 252 239 226 186 242 256 223 224 245 231 226 290 49 333 256 150 121 256 145 122 144 107 126 134 130 143 136 147 144 175 214 119 103 132 140 130 28 105 112 122 131 128 153 165 160 188 210 142 164 206 200 231 226
208 269 173 265 259 232 248 233 225 239 276 341 254 163 226 207 244 204 159 133 158 150 145 177 152 166 174 189 140 132 170 185 159 151 196 107 121 164 130 109 103 138 149 170 154 183 162 135 94 47 37 37 35 53
218 230 189 236 209 224 240 314 64 212 228 258 100 123 207 207 262 153 156 164 157 141 167 185 173 204 216 160 137 137 185 232 111 128 134 172 194 178 163 158 148 137 135 133 157 114 126 121 126 139 83 210 126 94
243 247 218 221 269 290 272 217 243 262 226 226 136 153 186 245 209 133 130 143 151 167 186 195 185 205 153 120 106 110 114 113 182 134 124 314 79 72 70 83 96 82 80 110 104 141 136 166 89 81 88 65 77 66
241 263 248 241 220 238 249 268 287 297 309 30 119 161 172 182 266 159 138 146 160 166 192 209 211 176 124 119 118 123 122 101 100 104 96 353 39 91 101 97 73 86 78 59 66 45 23 22 90 117 111 81 89 60
235 251 249 261 271 236 280 261 248 249 166 218 156 102 151 209 244 115 130 133 147 179 171 116 101 104 109 110 125 130 127 142 157 159 184 173 183 143 120 117 154 174 135 117 74 67 66 56 55 37 18 93 95 66
243 245 248 247 252 253 256 272 282 314 124 108 115 103 113 253 284 121 125 149 147 150 142 136 136 133 142 154 160 160 175 165 160 185 206 208 187 155 147 155 183 176 150 144 149 149 181 219 181 237 245 244 160 148
235 216 234 245 250 256 266 276 276 341 94 83 62 71 307 137 284 135 148 139 156 161 158 149 160 170 169 180 166 164 191 192 175 126 93 34 114 138 150 159 162 168 170 183 179 172 185 215 224 199 225 193 133 263
247 254 243 239 243 250 252 260 257 126 113 69 360 287 242 190 208 101 16 167 170 172 166 156 177 194 188 183 163 172 191 185 147 133 138 130 130 132 134 147 177 169 157 170 209 178 185 219 130 127 140 135 180 204
231 231 243 256 267 279 289 252 133 92 87 160 173 312 305 270 94 34 313 30 345 0 342 211 213 179 168 153 117 149 162 143 144 139 133 127 144 145 147 183 196 177 165 210 223 195 167 178 215 197 174 194 195 175